[[{"header":{"parameterUnit":"m.s-1","parameterCategory":1,"la1":30.2991,"la2":30.254,"lo1":-89.0895,"lo2":-89.0444,"dy":0.0017,"dx":0.0017,"nx":28,"ny":28,"refTime":"2024-05-04T09:00:00:Z","depth":0,"parameterNumber":2,"parameterNumberName":"U-component_of_WINDS"},"data":[0,0,0,0,0,0,0,0,0,0,0,0,0,0,0,0,0,0,0,0,0,0,0,0,0,0,0,0,0,0,0,0,0,0,0,0,0,0,0,0,0,0,0,0,0,0,0,0,0,0,0,0,0,0,0,0,0,0,-2.9909,-2.991,0,-2.9974,-2.9975,-2.9976,-2.9969,-2.9968,-2.9967,-2.9966,-3.003,-3.0032,-3.0035,0,0,0,0,0,0,0,0,0,0,0,0,0,-2.9777,-2.9779,-2.9909,-2.991,-2.991,-2.9974,-2.9975,-2.9976,-2.9969,-2.9968,-2.9967,-2.9966,-3.0029,-3.0032,-3.0035,0,0,0,0,0,0,0,0,0,0,0,0,0,-2.9837,-2.978,-2.9909,-2.9915,-2.9916,-2.9974,-2.9975,-2.9976,-2.997,-2.9968,-2.9967,-2.9965,-3.0028,-3.0032,-3.0036,-3.009,0,0,-3.0048,-3.005,0,0,0,0,0,0,0,0,-2.9834,-2.9842,-2.9913,-2.9915,-2.9916,-2.9962,-2.9952,-3.0014,-2.997,-2.9949,-2.9966,-2.9964,-3.0008,-3.0014,-3.0029,-3.0093,-3.0096,-3.0048,-3.0051,-3.0052,-3.0053,0,0,0,0,0,0,0,-2.9829,-2.9839,-2.9935,-2.9914,-2.9916,-2.9914,-2.9921,-2.9963,-2.9986,-2.9951,-2.9951,-2.9959,-3.0009,-3.0025,-3.0031,-3.0097,-3.0048,-3.0052,-3.0054,-3.0056,-3.021,-3.0211,0,0,0,0,0,0,-2.9824,-2.9836,-2.9932,-2.9936,-2.987,-2.9917,-2.9925,-2.9949,-2.9986,-2.999,-2.996,-2.9958,-3.0019,-3.0026,-3.0033,-3.0099,-3.0052,-3.0056,-3.0058,-3.0208,-3.021,-3.0212,0,0,0,0,0,0,-2.9821,-2.9833,-2.993,-2.9886,-2.9898,-2.9921,-2.9948,-2.9951,-2.9967,-2.9993,-2.9996,-2.9973,-3.0019,-3.0027,-3.0076,-3.0101,-3.0058,-3.0061,-3.0206,-3.0209,-3.0211,-3.0232,0,0,0,0,0,0,-2.9818,-2.9832,-2.9853,-2.9887,-2.9901,-2.9973,-2.9949,-2.9953,-2.9975,-2.9973,-3.0006,-3.001,-3.0018,-3.0071,-3.008,-3.0106,-3.0064,-3.0204,-3.0207,-3.021,-3.0229,-3.0235,-3.024,0,0,0,0,0,-2.9813,-2.9856,-2.9854,-2.9866,-2.9928,-2.9974,-2.9982,-2.9992,-2.9977,-2.9998,-3.0014,-3.0009,-3.0098,-3.0076,-3.0087,-3.0114,-3.0202,-3.0206,-3.021,-3.0227,-3.0234,-3.024,0,0,0,0,0,0,-2.9823,-2.986,-2.9859,-2.9914,-2.9941,-2.9973,-3.0,-2.9999,-3.003,-3.0027,-3.0037,-3.0044,-3.0094,-3.0109,-3.0084,-3.0169,-3.0148,-3.0154,-3.0157,-3.0164,-3.0169,-3.0164,-3.0068,0,0,0,0,0,-2.9832,-2.9868,-2.9898,-2.9944,-2.9958,-2.9977,-2.9997,-3.0003,-3.003,-3.0042,-3.0061,-3.0088,-3.0122,-3.0144,-3.0177,-3.0232,-3.0239,-3.0256,-3.0262,-3.0266,-3.0271,-3.0301,-3.0309,-3.0225,-3.0225,-3.0224,0,0,-2.9851,-2.9875,-2.9897,-2.9946,-2.9968,-3.0004,-2.9986,-3.0025,-3.0051,-3.0047,-3.0095,-3.0111,-3.0141,-3.0194,-3.0218,-3.0208,-3.0296,-3.0271,-3.0274,-3.0277,-3.0306,-3.0314,-3.0321,-3.0227,-3.0227,-3.0226,0,0,-2.9902,-2.9925,-2.9965,-2.9988,-3.0022,-3.0034,-3.0044,-3.0077,-3.0087,-3.0136,-3.0134,-3.0165,-3.0223,-3.0245,-3.0264,-3.0326,-3.0321,-3.0336,-3.0364,-3.0393,-3.04,-3.0406,-3.0427,-3.0435,-3.0341,-3.0341,-3.0341,0,-2.992,-2.9975,-2.9986,-3.0026,-3.0047,-3.0047,-3.0088,-3.0109,-3.0151,-3.0166,-3.0154,-3.0228,-3.0249,-3.0306,-3.0322,-3.0337,-3.0348,-3.0331,-3.0398,-3.0404,-3.041,-3.043,-3.0438,-3.0343,-3.0343,-3.0342,-3.0342,0,-2.9995,-3.0033,-3.0062,-3.0104,-3.0129,-3.0169,-3.0186,-3.021,-3.0214,-3.0227,-3.0277,-3.0302,-3.034,-3.0354,-3.0357,-3.0413,-3.0405,-3.0396,-3.0375,-3.0419,-3.0439,-3.0447,-3.0345,-3.0344,-3.0344,-3.0343,0,0,-3.0053,-3.0103,-3.0113,-3.0132,-3.017,-3.0199,-3.0239,-3.0277,-3.0297,-3.0327,-3.036,-3.041,-3.0402,-3.0424,-3.043,-3.0456,-3.0503,-3.0444,-3.0445,-3.0453,-3.0564,-3.057,-3.0579,-3.0501,-3.0503,-3.0504,-3.0562,0,-3.0108,-3.018,-3.0192,-3.0254,-3.0289,-3.029,-3.0325,-3.0352,-3.0366,-3.0397,-3.0413,-3.0448,-3.0436,-3.0449,-3.0475,-3.0491,-3.0525,-3.0488,-3.0531,-3.0532,-3.0522,-3.0589,-3.0595,-3.0649,-3.0569,-3.0571,-3.0572,0,-3.0181,-3.0214,-3.028,-3.0313,-3.0329,-3.036,-3.0396,-3.0426,-3.0457,-3.0465,-3.049,-3.0493,-3.0534,-3.0513,-3.0569,-3.0543,-3.0562,-3.0573,-3.0575,-3.0579,-3.0553,-3.0593,-3.0666,-3.0673,-3.0584,-3.0583,-3.0582,0,-3.0216,-3.0276,-3.0324,-3.034,-3.0381,-3.0403,-3.0421,-3.045,-3.0472,-3.0504,-3.0518,-3.0554,-3.0573,-3.0601,-3.0613,-3.0596,-3.0669,-3.0648,-3.0676,-3.0676,-3.069,-3.0689,-3.0765,-3.0704,-3.0704,-3.0704,-3.0704,0,-3.0275,-3.0315,-3.034,-3.0369,-3.0414,-3.0428,-3.0472,-3.0489,-3.0515,-3.0547,-3.0551,-3.058,-3.0596,-3.0628,-3.0638,-3.0683,-3.0692,-3.07,-3.0701,-3.0699,-3.0698,-3.071,-3.0706,-3.0706,-3.0706,-3.0705,-3.0705,0,-3.0321,-3.0339,-3.0391,-3.0426,-3.0436,-3.0467,-3.0497,-3.0525,-3.054,-3.058,-3.0591,-3.0614,-3.0652,-3.0668,-3.0714,-3.0721,-3.0772,-3.0772,-3.0762,-3.0763,-3.0789,-3.0786,-3.0876,-3.0888,-3.082,-3.082,-3.0821,0,-3.0357,-3.0388,-3.0427,-3.0449,-3.0468,-3.0503,-3.0526,-3.0541,-3.0565,-3.0603,-3.0626,-3.0665,-3.0696,-3.0757,-3.0777,-3.0813,-3.0813,-3.0842,-3.0818,-3.0814,-3.0812,-3.081,-3.0812,-3.0845,-3.0846,-3.0847,-3.0847,0,-3.0418,-3.0426,-3.046,-3.0498,-3.0526,-3.0556,-3.0585,-3.0603,-3.0622,-3.0649,-3.0688,-3.0713,-3.0761,-3.0799,-3.0836,-3.0853,-3.0853,-3.0855,-3.0863,-3.086,-3.0852,-3.0856,-3.0773,-3.0852,-3.0852,-3.0851,-3.0851,-3.0851,-3.046,-3.0488,-3.0519,-3.0557,-3.0581,-3.0609,-3.0637,-3.0656,-3.0689,-3.073,-3.0737,-3.0779,-3.0809,-3.0859,-3.0878,-3.0911,-3.0904,-3.0916,-3.0918,-3.0921,-3.0922,-3.0848,-3.0918,-3.0918,-3.0918,-3.0918,-3.0917,0,-3.0521,-3.0542,-3.0577,-3.0618,-3.0648,-3.0647,-3.0679,-3.0704,-3.0741,-3.077,-3.0801,-3.0846,-3.0883,-3.0907,-3.0945,-3.0966,-3.0967,-3.0975,-3.0973,-3.0977,-3.0927,-3.0916,-3.0974,-3.0974,-3.0974,-3.0974,-3.0974,-3.0974,-3.0556,-3.0603,-3.0615,-3.0674,-3.0694,-3.0736,-3.0755,-3.078,-3.0803,-3.0854,-3.0885,-3.0901,-3.0928,-3.0967,-3.1001,-3.1007,-3.102,-3.1029,-3.1034,-3.0987,-3.0981,-3.0975,-3.0965,-3.1032,-3.1032,-3.1081,-3.1082,-3.1082]},{"header":{"parameterUnit":"m.s-1","parameterCategory":1,"la1":30.2991,"la2":30.254,"lo1":-89.0895,"lo2":-89.0444,"dy":0.0017,"dx":0.0017,"nx":28,"ny":28,"refTime":"2024-05-04T09:00:00:Z","depth":0,"parameterNumber":3,"parameterNumberName":"V-component_of_WINDS"},"data":[0,0,0,0,0,0,0,0,0,0,0,0,0,0,0,0,0,0,0,0,0,0,0,0,0,0,0,0,0,0,0,0,0,0,0,0,0,0,0,0,0,0,0,0,0,0,0,0,0,0,0,0,0,0,0,0,0,0,4.3827,4.3827,0,4.3871,4.3872,4.3872,4.3821,4.3819,4.3817,4.3815,4.3857,4.386,4.3863,0,0,0,0,0,0,0,0,0,0,0,0,0,4.3695,4.3698,4.3827,4.3827,4.3828,4.3871,4.3872,4.3872,4.3821,4.3819,4.3817,4.3815,4.3856,4.386,4.3863,0,0,0,0,0,0,0,0,0,0,0,0,0,4.3747,4.3699,4.3827,4.3808,4.3807,4.3871,4.3872,4.3872,4.3822,4.3819,4.3816,4.3813,4.3855,4.3859,4.3864,4.3947,0,0,4.3877,4.3879,0,0,0,0,0,0,0,0,4.3744,4.3752,4.381,4.3809,4.3808,4.3838,4.384,4.3897,4.3823,4.3816,4.3815,4.3812,4.3853,4.3857,4.3872,4.3949,4.3951,4.3877,4.388,4.3882,4.3883,0,0,0,0,0,0,0,4.3741,4.375,4.3844,4.3811,4.381,4.3796,4.38,4.3851,4.385,4.3816,4.3813,4.3819,4.3852,4.3868,4.3872,4.3952,4.3877,4.3881,4.3884,4.3885,4.4101,4.4104,0,0,0,0,0,0,4.374,4.3747,4.3843,4.3845,4.3769,4.3801,4.3806,4.3831,4.3849,4.3849,4.3821,4.3816,4.3862,4.3867,4.3873,4.3973,4.3882,4.3886,4.3888,4.4098,4.4102,4.4105,0,0,0,0,0,0,4.3737,4.3749,4.3841,4.3795,4.3806,4.3806,4.3835,4.3833,4.3849,4.3853,4.3852,4.3838,4.3859,4.3867,4.393,4.3974,4.3888,4.3892,4.4095,4.4099,4.4104,4.4173,0,0,0,0,0,0,4.3734,4.3748,4.3781,4.3797,4.3809,4.3898,4.3838,4.3836,4.3857,4.3851,4.3868,4.3868,4.3858,4.3924,4.3934,4.3978,4.3895,4.4091,4.4097,4.4102,4.4167,4.418,4.4191,0,0,0,0,0,4.3729,4.3798,4.3783,4.3794,4.385,4.39,4.3907,4.3895,4.3861,4.3893,4.3896,4.3868,4.3968,4.3931,4.3942,4.3988,4.4088,4.4095,4.4102,4.4162,4.4177,4.4191,0,0,0,0,0,0,4.3785,4.3799,4.3783,4.3859,4.3879,4.3892,4.3932,4.3911,4.3941,4.3934,4.3916,4.392,4.3987,4.3994,4.3952,4.407,4.4022,4.4032,4.4064,4.4079,4.409,4.4087,4.3899,0,0,0,0,0,4.3807,4.3848,4.3857,4.3923,4.3935,4.3932,4.3953,4.3942,4.3962,4.397,4.3977,4.3996,4.4032,4.4055,4.4088,4.4168,4.4171,4.4205,4.4217,4.4227,4.4235,4.4279,4.4294,4.4129,4.4129,4.4128,0,0,4.3851,4.3864,4.3891,4.3935,4.3949,4.3992,4.3939,4.3986,4.4017,4.3976,4.4036,4.4042,4.4062,4.4134,4.4166,4.4142,4.4282,4.4236,4.4244,4.4247,4.4287,4.4303,4.4317,4.4133,4.4133,4.4132,0,0,4.3953,4.3967,4.4024,4.404,4.4063,4.4061,4.4075,4.4091,4.4094,4.4154,4.4125,4.4161,4.4223,4.4239,4.4255,4.4365,4.434,4.4376,4.4438,4.448,4.4493,4.4504,4.4544,4.4558,4.4384,4.4385,4.4385,0,4.4005,4.4069,4.4056,4.4105,4.4126,4.4093,4.415,4.4165,4.4197,4.4212,4.4185,4.4262,4.4273,4.4349,4.4376,4.439,4.4405,4.4374,4.4492,4.4504,4.4514,4.4551,4.4566,4.4389,4.4388,4.4388,4.4387,0,4.4131,4.4176,4.4219,4.4253,4.4278,4.4331,4.4325,4.4352,4.4339,4.434,4.4401,4.4414,4.4449,4.4466,4.4453,4.454,4.4524,4.4495,4.4446,4.4534,4.4569,4.4583,4.4395,4.4393,4.4392,4.4391,0,0,4.427,4.4297,4.4313,4.4328,4.4351,4.4385,4.4436,4.4472,4.4496,4.4519,4.4562,4.4615,4.4589,4.4607,4.4596,4.4633,4.472,4.4599,4.4599,4.4621,4.4816,4.4838,4.4855,4.4704,4.4706,4.4708,4.4815,0,4.4373,4.4463,4.4454,4.4539,4.458,4.455,4.4595,4.4614,4.4616,4.465,4.4652,4.4691,4.4652,4.4663,4.4699,4.4702,4.4759,4.4694,4.4742,4.4744,4.4738,4.4873,4.4897,4.4996,4.4828,4.483,4.4832,0,4.4505,4.4535,4.4626,4.4644,4.466,4.4701,4.4734,4.4767,4.4788,4.4786,4.4808,4.479,4.4841,4.4792,4.4861,4.4818,4.4837,4.4842,4.4845,4.4849,4.4794,4.4881,4.5027,4.5043,4.4853,4.4852,4.485,0,4.4597,4.466,4.4723,4.4736,4.4759,4.4788,4.4799,4.4817,4.4839,4.4867,4.4882,4.4915,4.4933,4.4959,4.4951,4.4915,4.5023,4.4972,4.5023,4.5023,4.5046,4.5045,4.5198,4.5059,4.5059,4.5058,4.5058,0,4.4714,4.477,4.4765,4.4803,4.4866,4.4853,4.4915,4.4922,4.4938,4.4977,4.4952,4.4989,4.4976,4.5011,4.5005,4.5064,4.5072,4.5072,4.507,4.5075,4.5075,4.5087,4.508,4.5062,4.5061,4.5061,4.506,0,4.4827,4.4826,4.4892,4.4909,4.4914,4.4959,4.4973,4.5009,4.5009,4.5058,4.5069,4.507,4.5111,4.5105,4.515,4.5146,4.5219,4.5208,4.5213,4.5211,4.5262,4.5257,4.5428,4.545,4.5297,4.5298,4.5299,0,4.4902,4.4945,4.4966,4.4991,4.5004,4.5044,4.5068,4.5057,4.5083,4.511,4.5143,4.5181,4.5212,4.5278,4.5282,4.5317,4.5306,4.5364,4.5311,4.5315,4.5308,4.5305,4.531,4.5374,4.5376,4.5378,4.5379,0,4.5034,4.5032,4.5067,4.5103,4.5131,4.5158,4.5183,4.5204,4.5196,4.5225,4.5268,4.5292,4.5338,4.5377,4.541,4.5419,4.5398,4.5396,4.5409,4.5414,4.5415,4.5416,4.5242,4.5392,4.539,4.5389,4.5389,4.5388,4.5131,4.5168,4.5189,4.523,4.5247,4.5271,4.5306,4.5311,4.5347,4.5385,4.5376,4.5424,4.5444,4.5485,4.5499,4.5535,4.5514,4.5534,4.5539,4.5544,4.555,4.541,4.5541,4.5541,4.554,4.554,4.554,0,4.5262,4.5275,4.5312,4.5348,4.538,4.5358,4.5384,4.5411,4.5454,4.5475,4.5506,4.5555,4.5593,4.56,4.5636,4.5664,4.5655,4.5674,4.5671,4.5674,4.5567,4.5552,4.568,4.568,4.568,4.568,4.568,4.568,4.5334,4.5397,4.5397,4.5467,4.5479,4.5527,4.5543,4.5565,4.5582,4.5638,4.5669,4.5674,4.569,4.5727,4.576,4.5761,4.5776,4.5799,4.5796,4.5696,4.5682,4.5668,4.5654,4.5802,4.5802,4.59,4.5901,4.5902]}]]